User: anonymous   Login
Location: Caltech
(34.1382°N, 118.1253°W)
Time: 18:01:26
(UTC-07:00)
Language:

Iridium 94 - Orbit

View from above orbital plane
View from above orbital plane
View from above satellite
View from above satellite

Ground track
Ground track

The orbit data is extracted from the following two-line orbital elements,

1 27374U 02005C   15088.50961426  .00000586  00000-0  20218-3 0  9990
2 27374 086.3960 234.5511 0002628 140.1734 331.9322 14.34220004699755
Epoch (UTC): 29 March 2015 12:13:50
Eccentricity: 0.0002628
inclination: 86.3960°
perigee height: 776 km
apogee height: 779 km
right ascension of ascending node: 234.5511°
argument of perigee: 140.1734°
revolutions per day: 14.34220004
mean anomaly at epoch: 331.9322°
orbit number at epoch: 69975

The dashed part of the orbit path shows where the satellite is in the earth's shadow,  

DLR